Weather History for Champaign, IL

Change the Weather History Date:

Sunday, December 9, 2012

  Actual Average Record
Temperature  
Mean Temperature 45 °F 31 °F  
Max Temperature 50 °F 38 °F 53 °F (1999)
Min Temperature 39 °F 23 °F 0 °F (2010)
Degree Days  
Heating Degree Days 20 34  
Month to date heating degree days 151 294  
Since 1 July heating degree days 1344 1458  
Cooling Degree Days 0 0  
Month to date cooling degree days 0 0  
Year to date cooling degree days 1290 945  
Moisture  
Dew Point 42 °F    
Average Humidity 93    
Maximum Humidity 100    
Minimum Humidity 85    
Precipitation  
Precipitation 0.30 in 0.07 in 0.56 in (2007)
Month to date precipitation 0.89 0.76  
Year to date precipitation 27.42 37.96  
Sea Level Pressure  
Sea Level Pressure 29.85 in    
Wind  
Wind Speed 13 mph (NE)    
Max Wind Speed 22 mph    
Max Gust Speed 26 mph    
Visibility 4 miles    
Events Fog , Rain    
T = Trace of Precipitation, MM = Missing Value Source: NWS Daily Summary

Daily Weather History Graph

Daily Weather History Graph

Search for Another Location

Airport:

Trip Planner

Search our weather history database for the weather conditions in past years. The results will help you decide how hot, cold, wet, or windy it might be!

Date:

Astronomy

Dec. 09, 2012 Rise Set
Actual Time 7:03 AM CST 4:27 PM CST
Civil Twilight 6:33 AM CST 4:58 PM CST
Nautical Twilight 5:59 AM CST 5:32 PM CST
Astronomical Twilight 5:26 AM CST 6:04 PM CST
Moon 2:36 AM CST (12/9) 1:34 PM CST (12/9)
Length of Visible Light 10h 24m
Length of Day
9h 23m
Waning Crescent, 18% of the Moon is Illuminated
Dec 9
Waning Crescent
Dec 13
New
Dec 19
First Quarter
Dec 28
Full
Jan 4
Last Quarter

Hourly Weather History & Observations

Time (CST) Temp. Windchill Dew Point Humidity Pressure Visibility Wind Dir Wind Speed Gust Speed Precip Events Conditions
12:02 AM 39.2 °F 31.6 °F 35.6 °F 87% 30.01 in 6.0 mi ENE 12.7 mph - N/A   Overcast
12:29 AM 39.2 °F 31.6 °F 37.4 °F 93% 30.02 in 5.0 mi ENE 12.7 mph - 0.01 in Rain Light Rain
12:53 AM 39.0 °F 32.8 °F 37.0 °F 93% 30.04 in 4.0 mi ENE 9.2 mph - 0.02 in Rain Light Rain
1:53 AM 39.0 °F 31.4 °F 37.0 °F 93% 30.01 in 5.0 mi ENE 12.7 mph - 0.02 in Rain Light Rain
2:00 AM 39.2 °F 31.2 °F 37.4 °F 93% 29.99 in 5.0 mi ENE 13.8 mph - 0.00 in   Overcast
2:34 AM 39.2 °F 30.5 °F 37.4 °F 93% 29.96 in 5.0 mi ENE 16.1 mph - 0.00 in Rain Light Rain
2:53 AM 39.0 °F 29.9 °F 37.9 °F 96% 29.97 in 5.0 mi ENE 17.3 mph - 0.00 in Rain Light Rain
3:53 AM 39.9 °F 31.1 °F 39.0 °F 97% 29.94 in 4.0 mi ENE 17.3 mph 24.2 mph 0.01 in Rain Light Rain
4:31 AM 39.2 °F 30.2 °F 39.2 °F 100% 29.93 in 2.5 mi ENE 17.3 mph - 0.07 in Rain Rain
4:43 AM 39.2 °F 29.8 °F 39.2 °F 100% 29.92 in 3.0 mi ENE 18.4 mph - 0.10 in Rain Rain
4:53 AM 39.9 °F 31.4 °F 39.0 °F 97% 29.94 in 3.0 mi East 16.1 mph - 0.11 in Rain Light Rain
5:53 AM 39.9 °F 31.1 °F 39.0 °F 97% 29.90 in 5.0 mi ENE 17.3 mph - 0.03 in   Overcast
6:53 AM 41.0 °F 32.8 °F 39.0 °F 93% 29.89 in 7.0 mi East 16.1 mph - N/A   Overcast
7:53 AM 41.0 °F 33.5 °F 39.9 °F 96% 29.87 in 5.0 mi East 13.8 mph - 0.00 in Rain Light Rain
8:35 AM 42.8 °F 35.4 °F 41.0 °F 93% 29.86 in 2.5 mi East 15.0 mph - 0.00 in Rain Light Rain
8:53 AM 42.1 °F 35.2 °F 41.0 °F 96% 29.86 in 2.5 mi East 12.7 mph - 0.01 in Rain Light Rain
9:53 AM 44.1 °F 40.8 °F 43.0 °F 96% 29.86 in 2.5 mi South 5.8 mph - 0.00 in   Overcast
10:11 AM 44.6 °F 39.7 °F 44.6 °F 100% 29.84 in 1.0 mi ESE 9.2 mph - N/A   Overcast
10:53 AM 46.0 °F 41.4 °F 45.0 °F 96% 29.84 in 1.0 mi SE 9.2 mph - N/A   Overcast
11:35 AM 48.2 °F - 46.4 °F 93% 29.80 in 0.8 mi SSE 9.2 mph - N/A   Overcast
11:53 AM 48.0 °F - 46.9 °F 96% 29.79 in 0.5 mi SSE 10.4 mph - N/A Fog Fog
12:07 PM 48.2 °F - 48.2 °F 100% 29.76 in 0.2 mi SE 12.7 mph - N/A Fog Fog
12:50 PM 48.2 °F - 48.2 °F 100% 29.75 in 0.2 mi South 6.9 mph - N/A Fog Fog
12:53 PM 48.9 °F - 48.9 °F 100% 29.77 in 0.2 mi SSW 8.1 mph - N/A Fog Fog
1:22 PM 48.2 °F - 48.2 °F 100% 29.77 in 0.2 mi SW 13.8 mph - 0.01 in Fog , Rain Light Rain
1:40 PM 48.2 °F - 48.2 °F 100% 29.77 in 1.5 mi WSW 12.7 mph - 0.03 in Rain Light Rain
1:53 PM 48.9 °F - 48.9 °F 100% 29.78 in 1.5 mi WSW 11.5 mph - 0.03 in Rain Light Rain
2:04 PM 50.0 °F - 48.2 °F 94% 29.76 in 3.0 mi WSW 12.7 mph - 0.01 in Rain Light Rain
2:53 PM 50.0 °F - 48.0 °F 93% 29.77 in 4.0 mi West 12.7 mph - 0.01 in   Overcast
3:53 PM 48.0 °F - 46.9 °F 96% 29.76 in 1.5 mi WNW 9.2 mph - 0.02 in Rain Light Rain
4:14 PM 48.2 °F - 46.4 °F 93% 29.76 in 2.5 mi West 11.5 mph - 0.01 in   Overcast
4:53 PM 46.9 °F - 46.0 °F 97% 29.76 in 2.5 mi WNW 8.1 mph - 0.04 in   Overcast
4:55 PM 46.4 °F 41.9 °F 46.4 °F 100% 29.75 in 4.0 mi WNW 9.2 mph - N/A   Overcast
5:53 PM 46.0 °F 39.6 °F 44.1 °F 93% 29.77 in 6.0 mi WNW 15.0 mph - N/A   Overcast
6:42 PM 44.6 °F 37.8 °F 42.8 °F 93% 29.77 in 8.0 mi WNW 15.0 mph - 0.00 in   Overcast
6:53 PM 44.1 °F 37.1 °F 42.1 °F 93% 29.78 in 7.0 mi WNW 15.0 mph - 0.00 in   Overcast
7:53 PM 43.0 °F 35.7 °F 41.0 °F 93% 29.79 in 9.0 mi West 15.0 mph - N/A   Overcast
8:53 PM 41.0 °F 32.5 °F 37.9 °F 89% 29.80 in 10.0 mi WNW 17.3 mph 25.3 mph N/A   Overcast
9:53 PM 41.0 °F 33.5 °F 37.0 °F 86% 29.81 in 10.0 mi WNW 13.8 mph - N/A   Overcast
10:08 PM 41.0 °F 34.3 °F 35.6 °F 81% 29.80 in 10.0 mi WNW 11.5 mph - N/A   Overcast
10:53 PM 39.9 °F 33.4 °F 37.0 °F 89% 29.82 in 10.0 mi WNW 10.4 mph - N/A   Overcast
11:53 PM 39.9 °F 32.9 °F 36.0 °F 86% 29.81 in 10.0 mi WNW 11.5 mph - N/A   Overcast